KB6CYS Weather Reports


Display with metric or nautical units.
time (UTC)temp
F
wind
direction
speed
MPH
gust
MPH
rain 1hr
in
rain 24hr
in
rain mn
in
humidity
%
barometer
mb
20260901052002 68 286 3.0 5.0 0.00 0.00 0.00 1013.6
20260901051502 68 237 3.0 5.0 0.00 0.00 0.00 1013.6
20260901051003 68 250 3.0 5.0 0.00 0.00 0.00 1013.6
20260901050502 69 245 3.0 5.0 0.00 0.00 0.00 1013.9
20260901050003 69 247 3.0 5.0 0.00 0.00 0.00 1013.6
20260901045524 69 240 3.0 5.0 0.00 0.00 0.00 1013.6
20260901045002 69 238 2.0 5.0 0.00 0.00 0.00 1013.6
20260901044525 69 223 3.0 5.0 0.00 0.00 0.00 1013.6
20260901044023 69 240 4.0 5.0 0.00 0.00 0.00 1013.6
20260901043502 69 253 3.0 6.0 0.00 0.00 0.00 1013.6
20260901043004 69 240 4.0 7.0 0.00 0.00 0.00 1013.2
20260901042503 69 244 4.0 7.0 0.00 0.00 0.00 1013.6
20260901042003 69 255 4.0 6.0 0.00 0.00 0.00 1013.2
20260901041502 69 243 4.0 7.0 0.00 0.00 0.00 1013.2
20260901041024 70 247 4.0 7.0 0.00 0.00 0.00 1013.2
20260901040523 70 274 4.0 6.0 0.00 0.00 0.00 1013.2
20260901040003 70 248 4.0 5.0 0.00 0.00 0.00 1012.9
20260901035502 70 283 3.0 7.0 0.00 0.00 0.00 1012.9
20260901035003 70 265 3.0 7.0 0.00 0.00 0.00 1012.9
20260901034502 70 245 4.0 7.0 0.00 0.00 0.00 1012.6
20260901034002 70 280 4.0 7.0 0.00 0.00 0.00 1012.6
20260901033524 70 277 5.0 7.0 0.00 0.00 0.00 1012.2
20260901033003 70 292 3.0 8.0 0.00 0.00 0.00 1012.2
20260901032502 70 264 4.0 8.0 0.00 0.00 0.00 1012.2
20260901032003 71 260 5.0 8.0 0.00 0.00 0.00 1011.5
20260901031524 71 281 3.0 9.0 0.00 0.00 0.00 1012.2
20260901031003 71 273 4.0 9.0 0.00 0.00 0.00 1012.6
20260901030503 71 284 3.0 10.0 0.00 0.00 0.00 1012.6
20260901030003 71 286 6.0 10.0 0.00 0.00 0.00 1011.9
20260901025503 71 297 5.0 9.0 0.00 0.00 0.00 1011.9
20260901025002 72 281 4.0 8.0 0.00 0.00 0.00 1012.2
20260901024503 72 289 4.0 9.0 0.00 0.00 0.00 1012.6
20260901024003 72 283 5.0 10.0 0.00 0.00 0.00 1011.9
20260901023502 73 285 5.0 12.0 0.00 0.00 0.00 1012.2
20260901023024 72 280 7.0 12.0 0.00 0.00 0.00 1011.5
20260901022503 73 301 5.0 10.0 0.00 0.00 0.00 1010.9
20260901022004 73 282 5.0 11.0 0.00 0.00 0.00 1011.2
20260901021503 74 287 6.0 11.0 0.00 0.00 0.00 1011.2
20260901021025 74 279 5.0 11.0 0.00 0.00 0.00 1011.2
20260901020524 74 278 5.0 11.0 0.00 0.00 0.00 1011.2
20260901020003 75 285 7.0 11.0 0.00 0.00 0.00 1010.9
20260901015524 76 277 6.0 13.0 0.00 0.00 0.00 1010.9
20260901015003 76 275 7.0 13.0 0.00 0.00 0.00 1011.2
20260901014502 77 270 8.0 13.0 0.00 0.00 0.00 1010.9
20260901014003 78 273 5.0 13.0 0.00 0.00 0.00 1011.2
20260901013503 79 277 6.0 13.0 0.00 0.00 0.00 1011.5
20260901013002 79 273 6.0 12.0 0.00 0.00 0.00 1011.2
20260901012502 79 273 8.0 12.0 0.00 0.00 0.00 1011.5
20260901012003 80 292 7.0 11.0 0.00 0.00 0.00 1010.9
20260901011503 81 277 5.0 9.0 0.00 0.00 0.00 1010.9
20260901011002 82 222 4.0 7.0 0.00 0.00 0.00 1010.5
20260901010502 82 198 3.0 8.0 0.00 0.00 0.00 1010.5
20260901010003 81 194 4.0 9.0 0.00 0.00 0.00 1010.9
20260901005502 81 210 4.0 10.0 0.00 0.00 0.00 1011.5
20260901005003 81 212 6.0 10.0 0.00 0.00 0.00 1010.9
20260901004502 80 218 5.0 11.0 0.00 0.00 0.00 1010.5
20260901004003 80 206 5.0 12.0 0.00 0.00 0.00 1011.5
20260901003503 80 200 6.0 12.0 0.00 0.00 0.00 1011.5
20260901003003 80 211 7.0 12.0 0.00 0.00 0.00 1011.5
20260901002503 80 205 6.0 12.0 0.00 0.00 0.00 1011.2
20260901002003 80 195 6.0 14.0 0.00 0.00 0.00 1010.9
20260901001524 80 214 8.0 15.0 0.00 0.00 0.00 1011.2
20260901001024 80 225 7.0 15.0 0.00 0.00 0.00 1010.9
20260901000503 81 232 8.0 14.0 0.00 0.00 0.00 1011.2
20260901000003 81 192 5.0 17.0 0.00 0.00 0.00 1011.5
20260831235503 81 219 10.0 17.0 0.00 0.00 0.00 1011.9
20260831235003 81 223 10.0 15.0 0.00 0.00 0.00 1011.5
20260831234504 81 199 8.0 15.0 0.00 0.00 0.00 1010.9
20260831234003 81 203 7.0 14.0 0.00 0.00 0.00 1010.5
20260831233502 81 222 8.0 15.0 0.00 0.00 0.00 1010.9
20260831233003 81 216 7.0 15.0 0.00 0.00 0.00 1010.5
20260831232502 81 206 8.0 14.0 0.00 0.00 0.00 1010.9
20260831232024 82 206 8.0 13.0 0.00 0.00 0.00 1011.5
20260831231502 82 203 5.0 13.0 0.00 0.00 0.00 1011.5
20260831231003 82 202 7.0 13.0 0.00 0.00 0.00 1011.5
20260831230502 82 182 7.0 12.0 0.00 0.00 0.00 1011.2
20260831230003 82 210 6.0 14.0 0.00 0.00 0.00 1011.2
20260831225503 82 212 7.0 14.0 0.00 0.00 0.00 1011.9
20260831225024 82 213 7.0 15.0 0.00 0.00 0.00 1011.9
20260831224525 82 231 9.0 15.0 0.00 0.00 0.00 1012.2
20260831224002 82 218 7.0 13.0 0.00 0.00 0.00 1011.5
20260831223524 83 212 6.0 13.0 0.00 0.00 0.00 1011.9
20260831223004 83 216 5.0 12.0 0.00 0.00 0.00 1012.2
20260831222502 83 180 6.0 15.0 0.00 0.00 0.00 1012.2
20260831222002 83 191 6.0 15.0 0.00 0.00 0.00 1012.2
20260831221503 83 205 8.0 14.0 0.00 0.00 0.00 1012.6
20260831221002 83 211 6.0 13.0 0.00 0.00 0.00 1011.9
20260831220502 82 222 7.0 13.0 0.00 0.00 0.00 1012.6
20260831220003 83 217 7.0 13.0 0.00 0.00 0.00 1011.9
20260831215525 83 218 6.0 12.0 0.00 0.00 0.00 1011.9
20260831215004 83 189 6.0 13.0 0.00 0.00 0.00 1011.9
20260831214503 82 205 7.0 15.0 0.00 0.00 0.00 1011.9
20260831214003 82 224 7.0 15.0 0.00 0.00 0.00 1011.9
20260831213502 82 219 7.0 12.0 0.00 0.00 0.00 1013.2
20260831213025 82 222 7.0 12.0 0.00 0.00 0.00 1011.9
20260831212503 82 227 8.0 12.0 0.00 0.00 0.00 1012.2
20260831212002 82 206 6.0 12.0 0.00 0.00 0.00 1012.2
20260831211502 82 188 6.0 12.0 0.00 0.00 0.00 1012.9
20260831211024 82 217 6.0 12.0 0.00 0.00 0.00 1012.6
20260831210503 83 191 7.0 12.0 0.00 0.00 0.00 1012.9
20260831210003 82 191 7.0 11.0 0.00 0.00 0.00 1012.6
20260831205502 82 176 7.0 15.0 0.00 0.00 0.00 1011.9
20260831205003 82 215 5.0 15.0 0.00 0.00 0.00 1012.6
20260831204503 83 211 6.0 13.0 0.00 0.00 0.00 1012.9
20260831204003 81 190 5.0 15.0 0.00 0.00 0.00 1011.9
20260831203503 82 232 9.0 15.0 0.00 0.00 0.00 1012.6
20260831203024 82 216 6.0 12.0 0.00 0.00 0.00 1012.2
20260831202503 82 201 6.0 11.0 0.00 0.00 0.00 1012.2
20260831202023 81 230 6.0 13.0 0.00 0.00 0.00 1011.9
20260831201502 82 211 5.0 13.0 0.00 0.00 0.00 1012.6
20260831201002 82 216 7.0 13.0 0.00 0.00 0.00 1012.9
20260831200525 80 244 6.0 13.0 0.00 0.00 0.00 1012.6
20260831200002 82 230 5.0 12.0 0.00 0.00 0.00 1012.9
20260831195504 81 231 8.0 12.0 0.00 0.00 0.00 1012.9
20260831195002 81 187 5.0 14.0 0.00 0.00 0.00 1012.6
20260831194502 81 226 8.0 14.0 0.00 0.00 0.00 1012.2
20260831194004 81 204 7.0 14.0 0.00 0.00 0.00 1012.6
20260831193502 81 223 10.0 14.0 0.00 0.00 0.00 1012.6
20260831193002 82 211 7.0 14.0 0.00 0.00 0.00 1012.2
20260831192502 82 238 7.0 11.0 0.00 0.00 0.00 1012.2
20260831192002 82 235 4.0 10.0 0.00 0.00 0.00 1012.6
20260831191504 82 207 6.0 10.0 0.00 0.00 0.00 1012.6
20260831191002 82 184 4.0 12.0 0.00 0.00 0.00 1012.6
20260831190503 81 215 6.0 12.0 0.00 0.00 0.00 1012.6
20260831190003 80 230 5.0 10.0 0.00 0.00 0.00 1012.2
20260831185524 80 315 2.0 9.0 0.00 0.00 0.00 1012.2
20260831185002 80 236 4.0 9.0 0.00 0.00 0.00 1012.6
20260831184503 81 196 2.0 9.0 0.00 0.00 0.00 1012.6
20260831184004 80 223 4.0 9.0 0.00 0.00 0.00 1013.2
20260831183503 81 226 4.0 9.0 0.00 0.00 0.00 1012.9
20260831183002 81 181 6.0 10.0 0.00 0.00 0.00 1013.2
20260831182502 80 181 5.0 10.0 0.00 0.00 0.00 1012.6
20260831182003 79 218 3.0 9.0 0.00 0.00 0.00 1012.6
20260831181503 79 222 4.0 10.0 0.00 0.00 0.00 1012.6
20260831181003 78 198 5.0 10.0 0.00 0.00 0.00 1012.6
20260831180504 78 254 5.0 7.0 0.00 0.00 0.00 1012.9
20260831180026 78 287 2.0 6.0 0.00 0.00 0.00 1012.6
20260831175503 78 236 2.0 7.0 0.00 0.00 0.00 1012.6
20260831175003 78 258 5.0 7.0 0.00 0.00 0.00 1012.9
20260831174504 78 66 2.0 6.0 0.00 0.00 0.00 1012.6
20260831174025 78 23 2.0 7.0 0.00 0.00 0.00 1012.2
20260831173502 77 89 4.0 7.0 0.00 0.00 0.00 1012.6
20260831173003 77 272 1.0 3.0 0.00 0.00 0.00 1012.9
20260831172503 76 200 1.0 7.0 0.00 0.00 0.00 1012.9
20260831172002 76 264 2.0 7.0 0.00 0.00 0.00 1012.9
20260831171503 76 208 3.0 7.0 0.00 0.00 0.00 1013.6
20260831171024 75 205 3.0 7.0 0.00 0.00 0.00 1012.6
20260831170524 76 276 2.0 6.0 0.00 0.00 0.00 1012.9
20260831170024 76 212 3.0 6.0 0.00 0.00 0.00 1012.6
20260831165524 76 63 2.0 7.0 0.00 0.00 0.00 1012.6
20260831165003 75 165 4.0 7.0 0.00 0.00 0.00 1012.6
20260831164502 75 191 3.0 7.0 0.00 0.00 0.00 1012.9
20260831164003 75 217 3.0 6.0 0.00 0.00 0.00 1013.2
20260831163503 75 165 3.0 6.0 0.00 0.00 0.00 1013.2
20260831163003 74 177 2.0 6.0 0.00 0.00 0.00 1012.2
20260831162502 73 183 3.0 6.0 0.00 0.00 0.00 1012.2
20260831162024 73 217 4.0 6.0 0.00 0.00 0.00 1012.2
20260831161502 73 220 3.0 6.0 0.00 0.00 0.00 1012.2
20260831161002 73 168 3.0 6.0 0.00 0.00 0.00 1012.6
20260831160525 73 187 2.0 5.0 0.00 0.00 0.00 1012.9
20260831160003 73 163 3.0 5.0 0.00 0.00 0.00 1012.9
20260831155503 74 190 3.0 5.0 0.00 0.00 0.00 1012.2
20260831155003 73 182 3.0 7.0 0.00 0.00 0.00 1012.6
20260831154503 73 176 4.0 7.0 0.00 0.00 0.00 1012.6
20260831154003 73 182 3.0 5.0 0.00 0.00 0.00 1012.2
20260831153502 73 216 3.0 5.0 0.00 0.00 0.00 1012.2
20260831153002 72 77 1.0 5.0 0.00 0.00 0.00 1011.5
20260831152502 72 52 1.0 5.0 0.00 0.00 0.00 1012.2
20260831152003 72 99 3.0 5.0 0.00 0.00 0.00 1012.2
20260831151502 71 99 2.0 5.0 0.00 0.00 0.00 1012.2
20260831151003 71 62 2.0 4.0 0.00 0.00 0.00 1011.9
20260831150502 71 86 1.0 4.0 0.00 0.00 0.00 1011.5
20260831150004 70 127 2.0 3.0 0.00 0.00 0.00 1011.5
20260831145502 70 74 1.0 2.0 0.00 0.00 0.00 1011.5
20260831145026 70 78 1.0 2.0 0.00 0.00 0.00 1011.5
20260831144502 70 23 1.0 2.0 0.00 0.00 0.00 1011.9
20260831144003 69 102 0.0 2.0 0.00 0.00 0.00 1011.9
20260831143502 69 45 1.0 2.0 0.00 0.00 0.00 1011.9
20260831143003 69 49 1.0 2.0 0.00 0.00 0.00 1011.5
20260831142503 69 206 0.0 1.0 0.00 0.00 0.00 1011.5
20260831142002 69 202 0.0 1.0 0.00 0.00 0.00 1011.9
20260831141503 69 225 0.0 1.0 0.00 0.00 0.00 1011.9
20260831141003 68 225 0.0 1.0 0.00 0.00 0.00 1011.5
20260831140502 68 225 0.0 0.0 0.00 0.00 0.00 1011.5
20260831140004 68 225 0.0 0.0 0.00 0.00 0.00 1011.5
20260831135503 68 225 0.0 0.0 0.00 0.00 0.00 1011.2
20260831135002 68 225 0.0 0.0 0.00 0.00 0.00 1011.2
20260831134526 68 225 0.0 0.0 0.00 0.00 0.00 1011.2
20260831134003 68 225 0.0 0.0 0.00 0.00 0.00 1010.9
20260831133503 68 225 0.0 0.0 0.00 0.00 0.00 1010.9
20260831133003 68 225 0.0 0.0 0.00 0.00 0.00 1010.5
20260831132502 68 225 0.0 0.0 0.00 0.00 0.00 1010.5
20260831132003 68 225 0.0 0.0 0.00 0.00 0.00 1010.9
20260831131525 68 225 0.0 0.0 0.00 0.00 0.00 1010.5
20260831131024 68 203 0.0 0.0 0.00 0.00 0.00 1010.9
20260831130503 69 270 0.0 0.0 0.00 0.00 0.00 1010.5
20260831130002 69 270 0.0 0.0 0.00 0.00 0.00 1010.9
20260831125503 69 293 0.0 1.0 0.00 0.00 0.00 1010.2
20260831125002 69 269 0.0 1.0 0.00 0.00 0.00 1010.9
20260831124502 69 269 1.0 1.0 0.00 0.00 0.00 1010.9
20260831124024 69 269 0.0 1.0 0.00 0.00 0.00 1010.5
20260831123502 69 270 0.0 1.0 0.00 0.00 0.00 1010.5
20260831123026 69 269 0.0 2.0 0.00 0.00 0.00 1010.5
20260831122525 69 269 1.0 2.0 0.00 0.00 0.00 1010.9
20260831122003 69 263 1.0 2.0 0.00 0.00 0.00 1010.2
20260831121504 69 234 1.0 2.0 0.00 0.00 0.00 1010.9
20260831121002 69 224 1.0 2.0 0.00 0.00 0.00 1010.5
20260831120504 69 212 1.0 3.0 0.00 0.00 0.00 1010.9
20260831120024 69 219 2.0 3.0 0.00 0.00 0.00 1010.5
20260831115503 69 214 2.0 2.0 0.00 0.00 0.00 1010.5
20260831115002 69 158 1.0 2.0 0.00 0.00 0.00 1010.9
20260831114503 69 196 1.0 2.0 0.00 0.00 0.00 1011.2
20260831114004 69 119 1.0 2.0 0.00 0.00 0.00 1010.9
20260831113503 69 102 1.0 2.0 0.00 0.00 0.00 1010.9
20260831113003 69 83 1.0 2.0 0.00 0.00 0.00 1010.9
20260831112503 69 100 1.0 3.0 0.00 0.00 0.00 1010.9
20260831112025 69 114 1.0 3.0 0.00 0.00 0.00 1010.9
20260831111503 69 96 2.0 3.0 0.00 0.00 0.00 1010.9
20260831111003 69 87 0.0 2.0 0.00 0.00 0.00 1010.9
20260831110502 69 85 1.0 2.0 0.00 0.00 0.00 1011.2
20260831110003 69 93 1.0 2.0 0.00 0.00 0.00 1011.2
20260831105503 70 107 1.0 2.0 0.00 0.00 0.00 1011.2
20260831105002 70 97 1.0 2.0 0.00 0.00 0.00 1010.9
20260831104525 69 92 0.0 1.0 0.00 0.00 0.00 1010.5
20260831104003 70 86 1.0 2.0 0.00 0.00 0.00 1010.9
20260831103503 70 153 1.0 2.0 0.00 0.00 0.00 1010.5
20260831103003 70 40 1.0 2.0 0.00 0.00 0.00 1011.2
20260831102502 70 90 1.0 3.0 0.00 0.00 0.00 1011.2
20260831102004 70 158 0.0 3.0 0.00 0.00 0.00 1010.9
20260831101502 70 143 2.0 3.0 0.00 0.00 0.00 1010.9
20260831101004 70 135 1.0 2.0 0.00 0.00 0.00 1010.5
20260831100502 70 113 1.0 3.0 0.00 0.00 0.00 1010.5
20260831100025 70 158 1.0 3.0 0.00 0.00 0.00 1010.5
20260831095504 70 158 1.0 2.0 0.00 0.00 0.00 1010.5
20260831095003 70 202 0.0 3.0 0.00 0.00 0.00 1010.5
20260831094503 70 202 1.0 3.0 0.00 0.00 0.00 1010.5
20260831094002 70 201 2.0 3.0 0.00 0.00 0.00 1010.9
20260831093503 70 209 1.0 3.0 0.00 0.00 0.00 1010.9
20260831093004 70 193 1.0 3.0 0.00 0.00 0.00 1010.9
20260831092502 71 222 1.0 2.0 0.00 0.00 0.00 1011.2
20260831092003 71 236 1.0 1.0 0.00 0.00 0.00 1011.2
20260831091503 71 251 0.0 1.0 0.00 0.00 0.00 1011.2
20260831091002 71 248 0.0 2.0 0.00 0.00 0.00 1010.9
20260831090524 71 223 1.0 2.0 0.00 0.00 0.00 1010.9
20260831090003 71 207 0.0 2.0 0.00 0.00 0.00 1010.2
20260831085504 71 287 1.0 2.0 0.00 0.00 0.00 1010.9
20260831085003 71 136 1.0 2.0 0.00 0.00 0.00 1010.9
20260831084502 71 202 0.0 2.0 0.00 0.00 0.00 1010.9
20260831084004 71 196 1.0 2.0 0.00 0.00 0.00 1010.9
20260831083502 71 188 1.0 2.0 0.00 0.00 0.00 1010.9
20260831083003 71 172 1.0 2.0 0.00 0.00 0.00 1010.9
20260831082503 71 198 1.0 2.0 0.00 0.00 0.00 1010.5
20260831082003 71 144 1.0 2.0 0.00 0.00 0.00 1010.9
20260831081503 71 119 1.0 2.0 0.00 0.00 0.00 1010.5
20260831081004 71 203 0.0 1.0 0.00 0.00 0.00 1010.5
20260831080503 71 133 0.0 2.0 0.00 0.00 0.00 1010.9
20260831080025 71 67 1.0 2.0 0.00 0.00 0.00 1010.5
20260831075524 71 115 1.0 2.0 0.00 0.00 0.00 1010.5
20260831075003 72 82 1.0 2.0 0.00 0.00 0.00 1010.9
20260831074503 72 37 1.0 1.0 0.00 0.00 0.00 1010.5
20260831074003 72 100 1.0 1.0 0.00 0.00 0.00 1010.5
20260831073503 72 248 0.0 1.0 0.00 0.00 0.00 1010.5
20260831073003 72 269 0.0 2.0 0.00 0.00 0.00 1010.5
20260831072502 72 266 1.0 2.0 0.00 0.00 0.00 1010.9
20260831072003 72 269 1.0 2.0 0.00 0.00 0.00 1010.9
20260831071503 72 291 1.0 3.0 0.00 0.00 0.00 1010.9
20260831071003 72 290 1.0 3.0 0.00 0.00 0.00 1010.9
20260831070502 72 292 1.0 3.0 0.00 0.00 0.00 1010.5
20260831070004 72 278 2.0 3.0 0.00 0.00 0.00 1010.2
20260831065503 72 292 1.0 3.0 0.00 0.00 0.00 1010.5
20260831065003 72 288 2.0 3.0 0.00 0.00 0.00 1010.5
20260831064504 72 288 2.0 3.0 0.00 0.00 0.00 1010.5
20260831064003 72 328 1.0 3.0 0.00 0.00 0.00 1010.2
20260831063504 72 305 1.0 3.0 0.00 0.00 0.00 1010.2
20260831063003 72 294 1.0 3.0 0.00 0.00 0.00 1010.5
20260831062503 72 288 2.0 3.0 0.00 0.00 0.00 1010.5
20260831062003 72 282 2.0 3.0 0.00 0.00 0.00 1010.5
20260831061503 72 274 1.0 3.0 0.00 0.00 0.00 1010.5
20260831061003 72 280 1.0 3.0 0.00 0.00 0.00 1010.5
20260831060503 72 286 2.0 3.0 0.00 0.00 0.00 1010.2
20260831060005 72 279 2.0 3.0 0.00 0.00 0.00 1010.5
20260831055502 72 297 2.0 3.0 0.00 0.00 0.00 1010.5
20260831055003 73 283 2.0 3.0 0.00 0.00 0.00 1010.5
20260831054503 72 295 1.0 3.0 0.00 0.00 0.00 1010.9
20260831054002 72 295 2.0 3.0 0.00 0.00 0.00 1010.9
20260831053504 73 294 2.0 3.0 0.00 0.00 0.00 1011.2
20260831053003 73 289 2.0 5.0 0.00 0.00 0.00 1011.2
20260831052503 73 298 2.0 5.0 0.00 0.00 0.00 1011.2